TimeMST,TemperatureF,Dew PointF,Humidity,Sea Level PressureIn,VisibilityMPH,Wind Direction,Wind SpeedMPH,Gust SpeedMPH,PrecipitationIn,Events,Conditions,WindDirDegrees,DateUTC
12:53 AM,23.0,17.1,78,30.01,10.0,Calm,Calm,-,N/A,,Clear,0,2012-12-28 07:53:00
1:53 AM,21.9,17.1,82,30.06,10.0,SSW,3.5,-,N/A,,Clear,200,2012-12-28 08:53:00
2:53 AM,19.9,16.0,85,30.07,10.0,SSW,3.5,-,N/A,,Clear,210,2012-12-28 09:53:00
4:53 AM,18.0,14.0,84,30.08,10.0,SSW,3.5,-,N/A,,Clear,200,2012-12-28 11:53:00
5:53 AM,18.0,14.0,84,30.10,10.0,SSW,3.5,-,N/A,,Clear,210,2012-12-28 12:53:00
6:53 AM,18.0,14.0,84,30.12,10.0,SSW,4.6,-,N/A,,Clear,200,2012-12-28 13:53:00
7:53 AM,18.0,14.0,84,30.14,7.0,South,4.6,-,N/A,,Clear,170,2012-12-28 14:53:00
8:53 AM,24.1,19.0,81,30.14,10.0,SW,4.6,-,N/A,,Clear,220,2012-12-28 15:53:00
9:53 AM,28.9,21.0,72,30.15,10.0,NNE,3.5,-,N/A,,Clear,30,2012-12-28 16:53:00
10:53 AM,30.0,19.0,64,30.17,10.0,NNW,3.5,-,N/A,,Clear,340,2012-12-28 17:53:00
11:53 AM,32.0,18.0,56,30.14,10.0,Calm,Calm,-,N/A,,Clear,0,2012-12-28 18:53:00
12:53 PM,37.0,18.0,46,30.10,10.0,Calm,Calm,-,N/A,,Clear,0,2012-12-28 19:53:00
1:53 PM,37.9,16.0,41,30.09,10.0,ENE,3.5,-,N/A,,Clear,70,2012-12-28 20:53:00
2:53 PM,41.0,14.0,33,30.08,10.0,Variable,3.5,-,N/A,,Clear,0,2012-12-28 21:53:00
3:53 PM,41.0,10.9,29,30.10,10.0,Calm,Calm,-,N/A,,Clear,0,2012-12-28 22:53:00
4:53 PM,39.0,12.9,34,30.11,10.0,Calm,Calm,-,N/A,,Clear,0,2012-12-28 23:53:00
5:53 PM,35.1,14.0,42,30.14,10.0,Calm,Calm,-,N/A,,Clear,0,2012-12-29 00:53:00
6:53 PM,28.0,15.1,58,30.19,10.0,South,5.8,-,N/A,,Clear,190,2012-12-29 01:53:00
7:53 PM,27.0,15.1,61,30.19,10.0,SSW,5.8,-,N/A,,Clear,200,2012-12-29 02:53:00
8:53 PM,25.0,15.1,66,30.18,10.0,Calm,Calm,-,N/A,,Clear,0,2012-12-29 03:53:00
9:53 PM,25.0,15.1,66,30.15,10.0,South,3.5,-,N/A,,Clear,180,2012-12-29 04:53:00
10:53 PM,24.1,15.1,69,30.17,10.0,SSW,8.1,-,N/A,,Clear,200,2012-12-29 05:53:00
11:53 PM,24.1,15.1,69,30.16,10.0,Calm,Calm,-,N/A,,Clear,0,2012-12-29 06:53:00